DW7780 Weather Reports


time (UTC)temp
C
wind
direction
speed
KPH
gust
KPH
rain 1hr
cm
rain 24hr
cm
rain mn
cm
humidity
%
barometer
mb
20260831101541 18 0 0.0 0.0 0.00 0.36 0.03 97 1019.5
20260831100034 19 0 0.0 0.0 0.00 0.36 0.03 97 1019.2
20260831094534 19 0 0.0 0.0 0.00 0.36 0.03 97 1019.1
20260831093038 19 0 0.0 0.0 0.03 0.36 0.03 97 1019.0
20260831091551 19 0 0.0 0.0 0.03 0.36 0.03 97 1018.8
20260831090034 19 0 0.0 0.0 0.03 0.36 0.03 97 1018.9
20260831084533 19 0 0.0 0.0 0.03 0.36 0.03 97 1018.9
20260831083034 19 0 0.0 0.0 0.00 0.33 0.00 97 1019.0
20260831081538 19 0 0.0 0.0 0.00 0.33 0.00 97 1019.0
20260831080055 20 0 0.0 0.0 0.00 0.33 0.00 97 1019.0
20260831074534 20 0 0.0 0.0 0.00 0.33 0.00 97 1018.9
20260831073057 20 0 0.0 0.0 0.00 0.33 0.00 97 1019.0
20260831071537 20 0 0.0 0.0 0.00 0.33 0.00 97 1019.1
20260831070036 20 0 0.0 0.0 0.00 0.33 0.00 97 1018.9
20260831064534 20 0 0.0 0.0 0.00 0.33 0.00 97 1018.9
20260831063036 20 0 0.0 0.0 0.00 0.33 0.00 97 1018.9
20260831061532 20 0 0.0 0.0 0.00 0.33 0.00 97 1018.9
20260831060031 20 0 0.0 0.0 0.00 0.33 0.00 96 1018.5
20260831054532 20 0 0.0 0.0 0.00 0.33 0.00 97 1018.7
20260831053037 21 0 0.0 0.0 0.00 0.33 0.00 97 1018.5
20260831051537 21 0 0.0 0.0 0.00 0.33 0.00 97 1018.9
20260831050035 21 0 0.0 0.0 0.00 0.33 0.00 97 1019.2
20260831044546 21 0 0.0 0.0 0.00 0.33 0.00 97 1019.2
20260831043034 21 0 0.0 0.0 0.00 0.33 0.00 97 1019.4
20260831041540 21 0 0.0 0.0 0.00 0.33 0.00 96 1019.3
20260831040032 21 0 0.0 0.0 0.15 0.33 0.00 96 1019.5
20260831034535 21 0 0.0 0.0 0.15 0.33 0.33 96 1019.3
20260831033038 21 0 0.0 0.0 0.15 0.33 0.33 96 1019.4
20260831031536 21 0 0.0 0.0 0.15 0.33 0.33 96 1019.3
20260831030033 22 0 0.0 0.0 0.00 0.18 0.18 96 1019.5
20260831024532 22 0 0.0 0.0 0.00 0.18 0.18 96 1019.1
20260831023033 22 0 0.0 1.6 0.00 0.18 0.18 96 1019.5
20260831021545 22 0 0.0 0.0 0.08 0.18 0.18 95 1019.3
20260831020031 22 0 0.0 3.2 0.18 0.18 0.18 95 1019.1
20260831014532 22 0 0.0 0.0 0.18 0.18 0.18 93 1019.0
20260831013042 22 0 0.0 0.0 0.18 0.18 0.18 92 1019.2
20260831011543 22 0 0.0 0.0 0.10 0.10 0.10 91 1019.4
20260831010044 22 0 0.0 0.0 0.00 0.00 0.00 90 1018.9
20260831004534 22 0 0.0 0.0 0.00 0.00 0.00 90 1018.8
20260831003034 22 0 0.0 0.0 0.00 0.00 0.00 89 1018.7
20260831001538 22 0 0.0 0.0 0.00 0.00 0.00 88 1018.5
20260831000035 23 0 0.0 0.0 0.00 0.00 0.00 88 1018.4
20260830234534 23 0 0.0 0.0 0.00 0.00 0.00 87 1018.4
20260830233034 23 0 0.0 0.0 0.00 0.00 0.00 85 1018.6
20260830231532 23 0 0.0 0.0 0.00 0.00 0.00 84 1018.6
20260830230034 24 0 0.0 0.0 0.00 0.00 0.00 83 1018.4
20260830224533 25 0 0.0 0.0 0.00 0.00 0.00 82 1018.4
20260830223035 25 0 0.0 1.6 0.00 0.00 0.00 82 1018.2
20260830221534 25 0 0.0 0.0 0.00 0.00 0.00 81 1018.1
20260830220037 25 0 0.0 0.0 0.00 0.00 0.00 82 1018.3
20260830214533 26 0 0.0 1.6 0.00 0.00 0.00 81 1018.1
20260830213034 26 0 0.0 0.0 0.00 0.00 0.00 79 1018.2
20260830211532 26 0 0.0 4.8 0.00 0.00 0.00 77 1018.2
20260830210034 26 260 0.0 6.4 0.00 0.00 0.00 76 1018.2
20260830204535 26 0 0.0 6.4 0.00 0.00 0.00 77 1018.1
20260830203034 26 0 0.0 3.2 0.00 0.00 0.00 81 1018.3
20260830201530 26 0 0.0 8.0 0.00 0.00 0.00 78 1018.5
20260830200033 27 168 1.6 9.7 0.00 0.00 0.00 74 1018.5
20260830194533 27 306 1.6 6.4 0.00 0.00 0.00 76 1018.7
20260830193034 26 0 0.0 4.8 0.00 0.00 0.00 77 1018.9
20260830191534 26 0 0.0 1.6 0.00 0.00 0.00 80 1019.0
20260830190035 26 0 0.0 1.6 0.00 0.00 0.00 77 1019.2
20260830184535 26 0 0.0 9.7 0.00 0.00 0.00 76 1019.4
20260830183036 26 0 0.0 6.4 0.00 0.00 0.00 78 1019.4
20260830181532 26 275 0.0 11.3 0.00 0.00 0.00 78 1019.7
20260830180038 25 0 0.0 6.4 0.00 0.00 0.00 78 1019.8
20260830174550 25 0 0.0 16.1 0.00 0.00 0.00 79 1020.0
20260830173036 25 0 0.0 11.3 0.00 0.00 0.00 79 1020.2
20260830171539 25 291 0.0 11.3 0.00 0.00 0.00 82 1020.3
20260830170036 23 0 0.0 1.6 0.00 0.00 0.00 85 1020.4
20260830164531 23 0 0.0 0.0 0.00 0.00 0.00 83 1020.8
20260830163045 24 0 0.0 4.8 0.00 0.00 0.00 81 1020.9
20260830161542 24 0 0.0 6.4 0.00 0.00 0.00 83 1020.9
20260830160034 23 0 0.0 6.4 0.00 0.00 0.00 84 1021.0
20260830154536 22 0 0.0 3.2 0.00 0.00 0.00 87 1021.3
20260830153036 22 0 0.0 1.6 0.00 0.00 0.00 88 1021.4
20260830151542 21 0 0.0 4.8 0.00 0.00 0.00 90 1021.4
20260830150034 20 0 0.0 1.6 0.00 0.00 0.00 92 1021.4
20260830144535 19 0 0.0 0.0 0.00 0.00 0.00 94 1021.6
20260830143034 18 0 0.0 0.0 0.00 0.00 0.00 95 1021.8
20260830141533 18 0 0.0 0.0 0.00 0.00 0.00 94 1021.9
20260830140035 18 0 0.0 0.0 0.00 0.00 0.00 94 1021.9
20260830134533 17 0 0.0 0.0 0.00 0.00 0.00 94 1022.2
20260830133040 17 0 0.0 0.0 0.00 0.00 0.00 96 1022.4
20260830131533 17 0 0.0 0.0 0.00 0.00 0.00 96 1022.5
20260830130042 16 0 0.0 0.0 0.00 0.00 0.00 96 1022.7
20260830124539 16 0 0.0 0.0 0.00 0.00 0.00 96 1022.5
20260830123035 16 0 0.0 0.0 0.00 0.00 0.00 97 1022.7
20260830121536 15 0 0.0 0.0 0.00 0.00 0.00 97 1022.8
20260830120034 15 0 0.0 0.0 0.00 0.00 0.00 97 1022.8
20260830114531 14 0 0.0 0.0 0.00 0.00 0.00 97 1022.7
20260830113038 14 0 0.0 0.0 0.00 0.00 0.00 97 1022.8
20260830111532 13 0 0.0 0.0 0.00 0.00 0.00 96 1022.8
20260830110042 13 0 0.0 0.0 0.00 0.00 0.00 96 1022.7
20260830104537 13 0 0.0 0.0 0.00 0.00 0.00 96 1022.7
20260830103034 13 0 0.0 0.0 0.00 0.00 0.00 96 1022.8